This demonstration page uses our WeatherBlox Daily Observations layout. Learn more.

Left ArrowRight Arrow

39.01783, -85.05884

Hourly Observations for February 13, 2016

Temp ( °F °C ) Dew Point ( °F °C ) Humidity (%) Winds ( mph kmh ) Pressure ( in mb ) Visibility ( mi km ) Precip ( " mm )
12:52 am 00:52 Partly Cloudy 19 -7.2 6 -14.4 57 57 NW 16 26 30.34 1027 10 16 0.00 0.00
1:52 am 01:52 Mostly Cloudy 18 -7.8 6 -14.4 59 59 NNW 12 19 30.35 1028 10 16 0.00 0.00
2:52 am 02:52 Partly Cloudy 16 -8.9 6 -14.4 65 65 NW 13 20 30.39 1029 10 16 0.00 0.03
3:52 am 03:52 Partly Cloudy 14 -10 4 -15.6 64 64 NW 12 19 30.41 1030 10 16 0.00 0.00
4:52 am 04:52 Partly Cloudy 13 -10.6 2 -16.7 61 61 NW 16 26 30.43 1031 10 16 0.00 0.00
5:52 am 05:52 Mostly Cloudy 12 -11.1 2 -16.7 64 64 NW 12 19 30.46 1032 10 16 0.00 0.00
6:52 am 06:52 Partly Cloudy 11 -11.7 2 -16.7 67 67 NW 9 15 30.49 1033 10 16 0.00 0.00
7:52 am 07:52 Cloudy 11 -11.7 2 -16.7 67 67 NW 10 17 30.52 1034 10 16 0.00 0.00
8:52 am 08:52 Mostly Cloudy 11 -11.7 3 -16.1 70 70 NW 10 17 30.55 1035 9 14 0.00 0.00
9:52 am 09:52 Partly Cloudy 12 -11.1 3 -16.1 67 67 WNW 7 11 30.57 1035 10 16 0.00 0.00
10:52 am 10:52 Partly Cloudy 15 -9.4 3 -16.1 59 59 NW 6 9 30.58 1036 10 16 0.00 0.00
11:52 am 11:52 Partly Cloudy 15 -9.4 2 -16.7 56 56 Calm 30.58 1036 10 16 0.00 0.00
12:52 pm 12:52 Partly Cloudy with Scattered Snow Showers 17 -8.3 3 -16.1 54 54 VRB 7 11 30.56 1035 9 14 0.00 0.03
1:52 pm 13:52 Partly Cloudy 18 -7.8 2 -16.7 49 49 VRB 6 9 30.55 1034 10 16 0.00 0.03
2:52 pm 14:52 Mostly Cloudy 18 -7.8 2 -16.7 49 49 WNW 13 20 30.54 1034 10 16 0.00 0.00
3:52 pm 15:52 Partly Cloudy 19 -7.2 0 -17.8 43 43 NW 7 11 30.53 1034 10 16 0.00 0.00
4:52 pm 16:52 Partly Cloudy 18 -7.8 1 -17.2 47 47 NW 10 17 30.53 1034 10 16 0.00 0.00
5:52 pm 17:52 Partly Cloudy 17 -8.3 1 -17.2 49 49 NW 7 11 30.55 1034 10 16 0.00 0.00
6:52 pm 18:52 Partly Cloudy 15 -9.4 1 -17.2 53 53 WNW 5 7 30.55 1035 10 16 0.00 0.00
7:52 pm 19:52 Partly Cloudy 14 -10 1 -17.2 56 56 Calm 30.54 1034 10 16 0.00 0.00
8:52 pm 20:52 Partly Cloudy 14 -10 1 -17.2 56 56 Calm 30.54 1034 10 16 0.00 0.00
9:52 pm 21:52 Partly Cloudy 12 -11.1 5 -15 73 73 Calm 30.53 1034 10 16 0.00 0.00
10:52 pm 22:52 Partly Cloudy 12 -11.1 3 -16.1 67 67 Calm 30.51 1033 10 16 0.00 0.00
11:52 pm 23:52 Mostly Cloudy 13 -10.6 4 -15.6 67 67 Calm 30.50 1033 10 16 0.00 0.00

Powered by AerisWeather